SCP
0 0 0 0 0 0 0 0 0 0 0 0 0 0 0 0 0 0 0 0 0 0
0 0 0 0 0 0 0 0 0 0 0 0 0 0 0 0 0 0 0 0 0 0
0 0 0 0 0 0 0 0 0 0 0 0 0 0 0 0 0 0 0 0 0 0
0 0 0 0 0 0 0 0 0 0 0 0 0 0 0 0 0 0 0 0 0 0
0 0 0 0 0 0 0 0 0 0 0 0 0 0 0 0 0 0 0 0 0 0
0 0 0 0 0 0 0 0 0 0 0 0 0 0 0 0 0 0 0 0 0 0
0 0 0 0 0 0 0 0 0 0 0 0 0 0 0 0 0 0 0 0 0 0
0 0 0 0 0 0 0 0 0 0 0 0 0 0 0 0 0 0 0 0 0 -0
0 0 0 0 0 0 0 0 0 0 0 0 0 0 0 0 0 0 0 0 -0 -0
0 0 0 0 0 0 0 0 0 0 0 0 0 0 0 0 0 0 0 0 0 0
0 0 0 0 0 0 0 0 0 0 0 0 0 0 0 0 0 0 0 0 0 0
0 0 0 0 0 0 0 0 0 0 0 0 0 -0 -0 0 0 0 0 0 0 0
0 0 0 0 0 0 0 0 0 0 0 0 0 -0 -0 0 0 0 0 0 -0 0
0 0 0 0 0 0 0 0 0 0 0 0 0 0 -0 0 0 0 0 0 0 0
Wind_Speed_500mb
35 38 44 50 57 63 72 75 77 79 81 83 82 82 83 89 95 96 98 97 89 79
33 39 45 51 58 66 72 79 84 85 85 86 88 87 88 90 94 96 98 94 87 84
33 40 46 52 58 67 75 81 87 86 87 88 89 89 91 96 97 96 99 86 83 87
33 39 46 53 63 72 79 84 87 87 86 88 89 91 95 99 99 97 93 84 84 89
34 40 47 56 66 75 81 83 83 83 84 84 86 93 98 101 100 92 89 85 82 87
36 42 49 59 67 73 79 79 77 79 82 84 87 95 98 97 98 87 81 82 81 84
35 43 53 62 68 72 74 76 77 79 83 84 88 93 94 87 76 71 70 71 73 76
35 46 56 62 67 69 69 72 75 82 84 86 89 91 81 71 74 77 78 78 75 73
37 47 54 59 64 66 69 70 75 78 82 85 86 83 65 67 75 73 76 81 81 77
39 46 51 57 60 62 65 69 73 77 80 82 83 74 64 64 67 69 69 72 77 77
38 44 49 53 56 59 63 67 72 76 77 81 78 71 66 66 67 68 70 71 74 76
37 41 48 50 51 55 61 65 71 75 77 81 86 72 66 66 72 63 62 65 69 65
34 39 45 48 52 53 56 64 72 77 76 85 88 76 67 64 73 74 75 75 74 72
30 37 43 43 49 54 54 60 69 79 84 86 82 81 60 71 70 74 76 77 79 77
Wind_Direction_500mb
294 305 313 314 315 317 316 317 317 316 316 314 309 305 301 298 297 296 295 291 283 274
296 304 309 314 316 316 316 317 317 317 316 312 309 307 303 299 296 294 294 287 281 276
293 302 310 313 314 313 314 315 314 315 313 311 309 307 303 300 297 294 292 282 276 276
290 302 309 312 313 315 316 314 313 311 310 310 309 307 303 299 297 293 289 281 275 276
292 302 309 314 316 319 314 312 312 311 311 310 309 307 304 300 298 290 285 280 276 274
293 305 313 316 317 315 314 314 315 313 313 312 312 308 305 302 297 291 285 282 277 276
298 310 316 318 319 320 321 321 320 317 315 316 314 311 309 302 297 292 289 285 279 274
303 312 318 323 324 326 324 323 321 319 319 321 319 316 313 304 298 292 288 284 283 280
305 317 323 326 328 327 325 324 322 322 323 324 324 325 309 302 298 292 288 288 287 284
313 321 326 328 327 325 325 324 324 325 329 329 334 329 314 307 298 294 291 288 286 283
318 324 326 326 326 326 326 326 327 329 334 334 339 332 317 312 305 302 296 292 289 289
319 323 323 323 324 328 326 327 328 334 338 339 342 337 323 319 312 308 303 301 293 287
315 319 321 325 326 328 328 330 334 335 344 346 342 338 326 326 318 309 307 301 296 291
314 320 322 326 329 329 331 334 338 341 348 345 343 335 330 326 321 315 310 305 300 296
Wind_Speed_850mb
35 38 44 50 57 63 72 75 77 79 81 83 82 82 83 89 95 96 98 97 89 79
33 39 45 51 58 66 72 79 84 85 85 86 88 87 88 90 94 96 98 94 87 84
33 40 46 52 58 67 75 81 87 86 87 88 89 89 91 96 97 96 99 86 83 87
33 39 46 53 63 72 79 84 87 87 86 88 89 91 95 99 99 97 93 84 84 89
34 40 47 56 66 75 81 83 83 83 84 84 86 93 98 101 100 92 89 85 82 87
36 42 49 59 67 73 79 79 77 79 82 84 87 95 98 97 98 87 81 82 81 84
35 43 53 62 68 72 74 76 77 79 83 84 88 93 94 87 76 71 70 71 73 76
35 46 56 62 67 69 69 72 75 82 84 86 89 91 81 71 74 77 78 78 75 73
37 47 54 59 64 66 69 70 75 78 82 85 86 83 65 67 75 73 76 81 81 77
39 46 51 57 60 62 65 69 73 77 80 82 83 74 64 64 67 69 69 72 77 77
38 44 49 53 56 59 63 67 72 76 77 81 78 71 66 66 67 68 70 71 74 76
37 41 48 50 51 55 61 65 71 75 77 81 86 72 66 66 72 63 62 65 69 65
34 39 45 48 52 53 56 64 72 77 76 85 88 76 67 64 73 74 75 75 74 72
30 37 43 43 49 54 54 60 69 79 84 86 82 81 60 71 70 74 76 77 79 77
Wind_Direction_850mb
294 305 313 314 315 317 316 317 317 316 316 314 309 305 301 298 297 296 295 291 283 274
296 304 309 314 316 316 316 317 317 317 316 312 309 307 303 299 296 294 294 287 281 276
293 302 310 313 314 313 314 315 314 315 313 311 309 307 303 300 297 294 292 282 276 276
290 302 309 312 313 315 316 314 313 311 310 310 309 307 303 299 297 293 289 281 275 276
292 302 309 314 316 319 314 312 312 311 311 310 309 307 304 300 298 290 285 280 276 274
293 305 313 316 317 315 314 314 315 313 313 312 312 308 305 302 297 291 285 282 277 276
298 310 316 318 319 320 321 321 320 317 315 316 314 311 309 302 297 292 289 285 279 274
303 312 318 323 324 326 324 323 321 319 319 321 319 316 313 304 298 292 288 284 283 280
305 317 323 326 328 327 325 324 322 322 323 324 324 325 309 302 298 292 288 288 287 284
313 321 326 328 327 325 325 324 324 325 329 329 334 329 314 307 298 294 291 288 286 283
318 324 326 326 326 326 326 326 327 329 334 334 339 332 317 312 305 302 296 292 289 289
319 323 323 323 324 328 326 327 328 334 338 339 342 337 323 319 312 308 303 301 293 287
315 319 321 325 326 328 328 330 334 335 344 346 342 338 326 326 318 309 307 301 296 291
314 320 322 326 329 329 331 334 338 341 348 345 343 335 330 326 321 315 310 305 300 296